QPF
0.00 0.00 0.00 0.00 0.00 0.00 0.00 0.00 0.00 0.00 0.00 0.00 0.00 0.00 0.00 0.00 0.00 0.00 0.01 0.01 0.01 0.01 0.01 0.02 0.02 0.03 0.03 0.03 0.03 0.03 0.04 0.04 0.05 0.06 0.08 0.09 0.09 0.10 0.11 0.13 0.15 0.13 0.10 0.08
0.00 0.00 0.00 0.00 0.00 0.00 0.00 0.00 0.00 0.00 0.00 0.00 0.00 0.00 0.00 0.00 0.00 0.01 0.01 0.00 0.01 0.02 0.02 0.03 0.03 0.03 0.02 0.02 0.02 0.03 0.03 0.05 0.06 0.07 0.07 0.08 0.11 0.13 0.14 0.14 0.13 0.12 0.12 0.10
0.00 0.00 0.00 0.00 0.00 0.00 0.00 0.00 0.00 0.00 0.00 0.00 0.00 0.00 0.00 0.00 0.00 0.01 0.01 0.01 0.02 0.02 0.03 0.04 0.05 0.03 0.03 0.03 0.03 0.04 0.04 0.06 0.07 0.08 0.08 0.09 0.11 0.10 0.10 0.11 0.11 0.13 0.15 0.14
0.00 0.00 0.00 0.00 0.00 0.00 0.00 0.00 0.00 0.00 0.00 0.00 0.00 0.00 0.00 0.00 0.00 0.00 0.00 0.01 0.01 0.03 0.05 0.06 0.04 0.03 0.03 0.04 0.04 0.04 0.05 0.08 0.08 0.10 0.10 0.11 0.11 0.10 0.11 0.14 0.17 0.17 0.14 0.13
0.00 0.00 0.00 0.00 0.00 0.00 0.00 0.00 0.00 0.00 0.00 0.00 0.00 0.00 0.00 0.00 0.00 0.01 0.01 0.01 0.01 0.02 0.03 0.04 0.03 0.03 0.02 0.04 0.05 0.05 0.08 0.11 0.12 0.13 0.13 0.15 0.17 0.17 0.18 0.19 0.16 0.13 0.10 0.11
0.00 0.00 0.00 0.00 0.00 0.00 0.00 0.00 0.00 0.00 0.00 0.00 0.00 0.00 0.00 0.00 0.00 0.01 0.01 0.01 0.02 0.02 0.03 0.04 0.06 0.06 0.04 0.03 0.06 0.07 0.08 0.11 0.14 0.16 0.18 0.20 0.21 0.19 0.15 0.11 0.09 0.08 0.08 0.10
0.00 0.00 0.00 0.00 0.00 0.00 0.00 0.00 0.00 0.00 0.00 0.00 0.00 0.00 0.00 0.00 0.00 0.00 0.01 0.02 0.03 0.05 0.05 0.08 0.13 0.15 0.08 0.06 0.05 0.05 0.06 0.08 0.12 0.14 0.15 0.15 0.14 0.14 0.10 0.09 0.09 0.08 0.08 0.09
0.00 0.00 0.00 0.00 0.00 0.00 0.00 0.00 0.00 0.00 0.00 0.00 0.00 0.00 0.00 0.00 0.00 0.00 0.00 0.02 0.04 0.06 0.06 0.06 0.07 0.10 0.13 0.08 0.05 0.05 0.06 0.08 0.10 0.12 0.11 0.11 0.13 0.12 0.09 0.08 0.08 0.08 0.08 0.09
0.00 0.00 0.00 0.00 0.00 0.00 0.00 0.00 0.00 0.00 0.00 0.00 0.00 0.00 0.00 0.00 0.02 0.03 0.01 0.02 0.03 0.04 0.04 0.05 0.06 0.05 0.06 0.06 0.05 0.06 0.06 0.06 0.06 0.07 0.08 0.08 0.10 0.11 0.10 0.10 0.09 0.08 0.09 0.10
0.00 0.00 0.00 0.00 0.00 0.00 0.00 0.00 0.00 0.00 0.00 0.00 0.00 0.00 0.00 0.00 0.01 0.01 0.01 0.01 0.02 0.03 0.03 0.04 0.05 0.04 0.03 0.03 0.04 0.04 0.05 0.05 0.05 0.05 0.07 0.07 0.09 0.10 0.12 0.13 0.11 0.09 0.09 0.10
0.00 0.00 0.00 0.00 0.00 0.00 0.00 0.00 0.00 0.00 0.00 0.00 0.00 0.00 0.00 0.00 0.01 0.01 0.01 0.01 0.03 0.04 0.05 0.06 0.05 0.04 0.03 0.02 0.03 0.03 0.04 0.05 0.06 0.05 0.05 0.06 0.06 0.08 0.11 0.13 0.14 0.13 0.11 0.09
0.00 0.00 0.00 0.00 0.00 0.00 0.00 0.00 0.00 0.00 0.00 0.00 0.00 0.00 0.00 0.01 0.01 0.02 0.02 0.01 0.02 0.02 0.02 0.03 0.03 0.03 0.04 0.04 0.03 0.03 0.04 0.06 0.06 0.06 0.06 0.08 0.08 0.07 0.09 0.09 0.10 0.10 0.10 0.10
0.00 0.00 0.00 0.00 0.00 0.00 0.00 0.00 0.00 0.00 0.00 0.00 0.00 0.00 0.00 0.01 0.01 0.01 0.01 0.01 0.02 0.03 0.03 0.03 0.03 0.04 0.04 0.04 0.03 0.04 0.05 0.07 0.07 0.07 0.08 0.09 0.09 0.08 0.09 0.06 0.06 0.06 0.07 0.10
0.00 0.00 0.00 0.00 0.00 0.00 0.00 0.00 0.00 0.00 0.00 0.00 0.00 0.00 0.00 0.00 0.01 0.01 0.01 0.01 0.01 0.03 0.03 0.03 0.02 0.02 0.03 0.04 0.04 0.05 0.07 0.08 0.08 0.10 0.09 0.08 0.08 0.08 0.08 0.06 0.06 0.05 0.05 0.07
0.00 0.00 0.00 0.00 0.00 0.00 0.00 0.00 0.00 0.00 0.00 0.00 0.00 0.00 0.00 0.01 0.01 0.01 0.01 0.01 0.02 0.03 0.03 0.02 0.01 0.02 0.03 0.04 0.04 0.05 0.07 0.08 0.09 0.10 0.11 0.09 0.08 0.06 0.06 0.06 0.07 0.06 0.05 0.05
0.00 0.00 0.00 0.00 0.00 0.00 0.00 0.00 0.00 0.00 0.00 0.00 0.00 0.00 0.00 0.00 0.00 0.00 0.01 0.01 0.02 0.02 0.01 0.01 0.01 0.02 0.02 0.03 0.04 0.06 0.07 0.09 0.07 0.05 0.05 0.04 0.04 0.05 0.04 0.04 0.04 0.04 0.05 0.05
0.00 0.00 0.00 0.00 0.00 0.00 0.00 0.00 0.00 0.00 0.00 0.00 0.00 0.00 0.00 0.00 0.00 0.01 0.01 0.01 0.01 0.01 0.01 0.01 0.01 0.01 0.01 0.02 0.04 0.07 0.06 0.07 0.06 0.05 0.03 0.02 0.03 0.04 0.03 0.04 0.05 0.06 0.09 0.11
0.00 0.00 0.00 0.00 0.00 0.00 0.00 0.00 0.00 0.00 0.00 0.00 0.00 0.00 0.00 0.00 0.00 0.01 0.01 0.01 0.02 0.03 0.03 0.02 0.01 0.01 0.01 0.01 0.01 0.02 0.02 0.02 0.03 0.03 0.02 0.02 0.02 0.03 0.04 0.05 0.06 0.09 0.11 0.14
0.00 0.00 0.00 0.00 0.00 0.00 0.00 0.00 0.00 0.00 0.00 0.00 0.00 0.01 0.01 0.01 0.01 0.01 0.01 0.01 0.03 0.05 0.05 0.04 0.03 0.02 0.01 0.01 0.01 0.01 0.01 0.01 0.01 0.02 0.02 0.01 0.01 0.03 0.04 0.05 0.08 0.11 0.13 0.12
0.00 0.00 0.00 0.00 0.00 0.00 0.00 0.00 0.00 0.01 0.00 0.01 0.01 0.01 0.01 0.01 0.02 0.01 0.01 0.01 0.01 0.03 0.06 0.05 0.04 0.03 0.03 0.02 0.02 0.02 0.02 0.01 0.01 0.01 0.02 0.02 0.03 0.04 0.05 0.07 0.08 0.08 0.07 0.06
0.00 0.00 0.00 0.00 0.00 0.00 0.00 0.01 0.01 0.01 0.01 0.01 0.01 0.02 0.02 0.02 0.02 0.01 0.01 0.02 0.02 0.03 0.06 0.10 0.09 0.06 0.05 0.06 0.04 0.03 0.03 0.02 0.01 0.02 0.02 0.02 0.03 0.04 0.05 0.07 0.08 0.08 0.08 0.08
0.00 0.00 0.00 0.00 0.00 0.00 0.00 0.00 0.01 0.00 0.00 0.01 0.02 0.03 0.03 0.03 0.03 0.02 0.02 0.02 0.03 0.05 0.08 0.10 0.10 0.08 0.07 0.07 0.06 0.04 0.03 0.03 0.03 0.02 0.02 0.03 0.04 0.05 0.05 0.06 0.06 0.06 0.07 0.09
0.01 0.01 0.01 0.01 0.01 0.01 0.01 0.01 0.01 0.01 0.00 0.01 0.02 0.03 0.03 0.02 0.02 0.03 0.03 0.04 0.04 0.06 0.08 0.08 0.07 0.08 0.07 0.06 0.06 0.04 0.03 0.04 0.03 0.03 0.03 0.03 0.04 0.04 0.04 0.03 0.03 0.04 0.05 0.05
0.02 0.03 0.03 0.02 0.03 0.03 0.03 0.02 0.02 0.02 0.01 0.01 0.02 0.03 0.02 0.02 0.02 0.02 0.04 0.06 0.06 0.06 0.05 0.05 0.06 0.05 0.05 0.04 0.04 0.04 0.03 0.03 0.03 0.03 0.03 0.04 0.04 0.05 0.04 0.03 0.02 0.02 0.03 0.03
0.01 0.02 0.03 0.04 0.04 0.04 0.03 0.03 0.03 0.03 0.03 0.02 0.01 0.03 0.04 0.04 0.04 0.03 0.04 0.06 0.06 0.04 0.04 0.03 0.03 0.04 0.04 0.03 0.03 0.03 0.03 0.03 0.02 0.01 0.02 0.03 0.03 0.02 0.01 0.02 0.02 0.02 0.02 0.02
0.01 0.02 0.03 0.04 0.04 0.03 0.04 0.04 0.04 0.04 0.05 0.03 0.03 0.06 0.08 0.08 0.06 0.05 0.04 0.05 0.05 0.04 0.03 0.03 0.03 0.03 0.02 0.02 0.02 0.02 0.02 0.02 0.01 0.01 0.01 0.02 0.01 0.01 0.01 0.01 0.01 0.01 0.01 0.01
MSLP
1012.51 1013.44 1014.17 1014.66 1014.92 1014.98 1014.87 1014.65 1014.36 1014.03 1013.67 1013.30 1012.94 1012.60 1012.29 1012.05 1011.89 1011.84 1011.89 1012.04 1012.25 1012.50 1012.74 1012.95 1013.10 1013.22 1013.32 1013.43 1013.60 1013.84 1014.17 1014.59 1015.05 1015.52 1015.96 1016.33 1016.60 1016.77 1016.86 1016.91 1016.95 1017.02 1017.15 1017.36
1013.03 1013.81 1014.39 1014.75 1014.93 1014.98 1014.93 1014.83 1014.71 1014.55 1014.36 1014.12 1013.83 1013.48 1013.11 1012.76 1012.47 1012.27 1012.20 1012.24 1012.39 1012.58 1012.80 1012.98 1013.12 1013.20 1013.26 1013.32 1013.44 1013.64 1013.95 1014.36 1014.84 1015.35 1015.82 1016.21 1016.49 1016.66 1016.73 1016.74 1016.75 1016.79 1016.90 1017.10
1013.29 1013.89 1014.29 1014.53 1014.65 1014.72 1014.78 1014.86 1014.96 1015.04 1015.06 1014.97 1014.75 1014.41 1013.97 1013.48 1013.03 1012.66 1012.43 1012.35 1012.41 1012.56 1012.76 1012.94 1013.08 1013.17 1013.22 1013.27 1013.36 1013.54 1013.83 1014.23 1014.71 1015.23 1015.72 1016.12 1016.42 1016.58 1016.63 1016.62 1016.59 1016.60 1016.69 1016.88
1013.30 1013.70 1013.94 1014.07 1014.16 1014.30 1014.51 1014.82 1015.18 1015.52 1015.76 1015.84 1015.70 1015.34 1014.80 1014.16 1013.51 1012.95 1012.54 1012.32 1012.29 1012.40 1012.59 1012.80 1012.98 1013.11 1013.19 1013.25 1013.34 1013.51 1013.78 1014.17 1014.65 1015.15 1015.64 1016.05 1016.34 1016.50 1016.54 1016.50 1016.45 1016.44 1016.51 1016.67
1013.13 1013.35 1013.44 1013.50 1013.61 1013.85 1014.25 1014.80 1015.44 1016.04 1016.50 1016.71 1016.63 1016.23 1015.58 1014.76 1013.90 1013.13 1012.53 1012.17 1012.04 1012.12 1012.32 1012.58 1012.83 1013.02 1013.15 1013.25 1013.36 1013.52 1013.78 1014.14 1014.59 1015.08 1015.55 1015.94 1016.23 1016.37 1016.40 1016.36 1016.29 1016.25 1016.30 1016.44
1012.88 1012.94 1012.93 1012.95 1013.11 1013.49 1014.09 1014.89 1015.78 1016.61 1017.25 1017.58 1017.51 1017.05 1016.26 1015.25 1014.18 1013.20 1012.42 1011.92 1011.71 1011.77 1012.00 1012.32 1012.64 1012.91 1013.11 1013.25 1013.37 1013.53 1013.76 1014.09 1014.49 1014.94 1015.38 1015.76 1016.03 1016.17 1016.19 1016.14 1016.06 1016.00 1016.03 1016.15
1012.62 1012.58 1012.51 1012.55 1012.79 1013.30 1014.10 1015.11 1016.20 1017.22 1017.98 1018.37 1018.28 1017.74 1016.81 1015.62 1014.35 1013.18 1012.25 1011.64 1011.37 1011.42 1011.68 1012.06 1012.46 1012.80 1013.06 1013.23 1013.36 1013.50 1013.69 1013.96 1014.31 1014.71 1015.11 1015.46 1015.72 1015.85 1015.88 1015.82 1015.73 1015.67 1015.67 1015.76
1012.42 1012.33 1012.25 1012.33 1012.66 1013.31 1014.26 1015.43 1016.66 1017.79 1018.61 1019.00 1018.87 1018.23 1017.17 1015.83 1014.41 1013.11 1012.07 1011.38 1011.09 1011.13 1011.43 1011.86 1012.32 1012.71 1013.00 1013.18 1013.30 1013.40 1013.53 1013.74 1014.02 1014.37 1014.73 1015.06 1015.30 1015.44 1015.47 1015.42 1015.33 1015.26 1015.23 1015.30
1012.30 1012.20 1012.15 1012.29 1012.71 1013.46 1014.51 1015.76 1017.06 1018.20 1019.02 1019.37 1019.17 1018.45 1017.29 1015.85 1014.35 1012.98 1011.89 1011.19 1010.89 1010.95 1011.28 1011.74 1012.23 1012.64 1012.93 1013.10 1013.18 1013.22 1013.29 1013.43 1013.65 1013.94 1014.27 1014.57 1014.82 1014.98 1015.02 1014.99 1014.90 1014.81 1014.77 1014.79
1012.24 1012.16 1012.17 1012.37 1012.85 1013.65 1014.73 1015.99 1017.26 1018.36 1019.11 1019.38 1019.11 1018.33 1017.12 1015.66 1014.16 1012.80 1011.74 1011.06 1010.79 1010.88 1011.23 1011.70 1012.19 1012.59 1012.86 1012.98 1013.00 1012.98 1012.99 1013.06 1013.23 1013.48 1013.78 1014.09 1014.35 1014.53 1014.60 1014.58 1014.50 1014.40 1014.33 1014.31
1012.19 1012.16 1012.22 1012.47 1012.97 1013.77 1014.80 1015.99 1017.15 1018.14 1018.78 1018.96 1018.63 1017.82 1016.64 1015.23 1013.81 1012.54 1011.56 1010.97 1010.76 1010.88 1011.25 1011.72 1012.18 1012.54 1012.76 1012.83 1012.79 1012.72 1012.67 1012.70 1012.83 1013.06 1013.36 1013.68 1013.97 1014.17 1014.27 1014.27 1014.20 1014.09 1013.99 1013.93
1012.12 1012.14 1012.24 1012.51 1013.00 1013.73 1014.66 1015.70 1016.71 1017.53 1018.04 1018.12 1017.75 1016.96 1015.85 1014.57 1013.29 1012.17 1011.35 1010.87 1010.74 1010.91 1011.28 1011.73 1012.15 1012.47 1012.63 1012.65 1012.58 1012.46 1012.39 1012.40 1012.53 1012.77 1013.08 1013.42 1013.74 1013.98 1014.11 1014.13 1014.06 1013.94 1013.81 1013.71
1012.03 1012.09 1012.21 1012.46 1012.90 1013.52 1014.30 1015.16 1015.96 1016.60 1016.95 1016.94 1016.55 1015.81 1014.82 1013.71 1012.62 1011.71 1011.05 1010.71 1010.68 1010.90 1011.28 1011.70 1012.08 1012.35 1012.47 1012.47 1012.37 1012.26 1012.19 1012.22 1012.37 1012.63 1012.98 1013.35 1013.70 1013.97 1014.13 1014.17 1014.10 1013.97 1013.82 1013.67
1011.94 1012.01 1012.13 1012.35 1012.70 1013.19 1013.79 1014.43 1015.02 1015.46 1015.66 1015.56 1015.17 1014.50 1013.65 1012.73 1011.86 1011.15 1010.67 1010.48 1010.54 1010.80 1011.18 1011.59 1011.94 1012.18 1012.29 1012.29 1012.22 1012.14 1012.12 1012.19 1012.39 1012.69 1013.07 1013.48 1013.85 1014.15 1014.32 1014.37 1014.32 1014.18 1014.00 1013.82
1011.91 1011.98 1012.07 1012.23 1012.48 1012.82 1013.23 1013.66 1014.03 1014.28 1014.34 1014.17 1013.77 1013.18 1012.47 1011.73 1011.06 1010.54 1010.23 1010.16 1010.30 1010.60 1010.99 1011.39 1011.73 1011.97 1012.10 1012.14 1012.13 1012.12 1012.17 1012.32 1012.57 1012.92 1013.34 1013.77 1014.16 1014.47 1014.65 1014.71 1014.66 1014.52 1014.33 1014.13
1011.99 1012.04 1012.11 1012.20 1012.34 1012.54 1012.77 1013.00 1013.17 1013.25 1013.17 1012.93 1012.53 1012.00 1011.40 1010.81 1010.31 1009.95 1009.78 1009.80 1010.00 1010.33 1010.73 1011.13 1011.48 1011.75 1011.93 1012.04 1012.12 1012.20 1012.35 1012.58 1012.89 1013.29 1013.73 1014.17 1014.57 1014.87 1015.06 1015.13 1015.08 1014.95 1014.77 1014.57
1012.26 1012.28 1012.30 1012.33 1012.37 1012.44 1012.51 1012.57 1012.57 1012.49 1012.29 1011.98 1011.57 1011.07 1010.56 1010.07 1009.68 1009.44 1009.36 1009.45 1009.69 1010.04 1010.45 1010.86 1011.24 1011.56 1011.81 1012.01 1012.19 1012.39 1012.63 1012.93 1013.31 1013.73 1014.19 1014.62 1015.01 1015.31 1015.49 1015.57 1015.54 1015.43 1015.28 1015.10
1012.73 1012.71 1012.68 1012.65 1012.61 1012.57 1012.51 1012.43 1012.29 1012.07 1011.78 1011.40 1010.95 1010.47 1009.99 1009.57 1009.24 1009.06 1009.03 1009.15 1009.41 1009.77 1010.20 1010.63 1011.05 1011.43 1011.77 1012.07 1012.35 1012.65 1012.97 1013.34 1013.75 1014.19 1014.64 1015.07 1015.44 1015.72 1015.92 1016.01 1016.01 1015.94 1015.83 1015.69
1013.36 1013.30 1013.23 1013.14 1013.03 1012.90 1012.75 1012.55 1012.29 1011.98 1011.59 1011.15 1010.66 1010.16 1009.69 1009.29 1008.99 1008.83 1008.82 1008.96 1009.23 1009.60 1010.03 1010.50 1010.96 1011.41 1011.82 1012.21 1012.58 1012.95 1013.34 1013.75 1014.18 1014.62 1015.06 1015.46 1015.82 1016.11 1016.31 1016.43 1016.49 1016.48 1016.42 1016.34
1014.08 1013.98 1013.86 1013.71 1013.54 1013.35 1013.11 1012.83 1012.49 1012.09 1011.63 1011.13 1010.60 1010.08 1009.60 1009.19 1008.90 1008.74 1008.73 1008.88 1009.15 1009.53 1009.98 1010.48 1010.99 1011.49 1011.97 1012.42 1012.86 1013.28 1013.70 1014.13 1014.56 1014.99 1015.41 1015.80 1016.15 1016.45 1016.69 1016.86 1016.98 1017.04 1017.06 1017.05
1014.80 1014.64 1014.46 1014.27 1014.04 1013.79 1013.49 1013.15 1012.74 1012.28 1011.77 1011.22 1010.65 1010.10 1009.60 1009.19 1008.90 1008.74 1008.74 1008.89 1009.17 1009.57 1010.05 1010.58 1011.13 1011.68 1012.20 1012.70 1013.17 1013.61 1014.04 1014.46 1014.88 1015.29 1015.70 1016.09 1016.45 1016.78 1017.07 1017.31 1017.50 1017.64 1017.74 1017.80
1015.42 1015.20 1014.95 1014.69 1014.41 1014.10 1013.76 1013.36 1012.91 1012.41 1011.86 1011.28 1010.69 1010.12 1009.61 1009.20 1008.91 1008.77 1008.79 1008.96 1009.27 1009.70 1010.22 1010.79 1011.37 1011.95 1012.50 1013.01 1013.49 1013.93 1014.34 1014.75 1015.15 1015.55 1015.95 1016.35 1016.74 1017.12 1017.47 1017.79 1018.06 1018.28 1018.46 1018.58
1015.86 1015.56 1015.25 1014.92 1014.58 1014.21 1013.82 1013.39 1012.90 1012.37 1011.80 1011.20 1010.60 1010.04 1009.54 1009.14 1008.88 1008.78 1008.84 1009.05 1009.41 1009.89 1010.45 1011.06 1011.68 1012.28 1012.84 1013.35 1013.82 1014.24 1014.63 1015.01 1015.38 1015.77 1016.18 1016.60 1017.04 1017.47 1017.90 1018.29 1018.64 1018.94 1019.18 1019.35
1016.08 1015.70 1015.31 1014.91 1014.50 1014.08 1013.65 1013.18 1012.67 1012.12 1011.54 1010.94 1010.35 1009.81 1009.34 1008.99 1008.77 1008.73 1008.85 1009.13 1009.56 1010.10 1010.72 1011.37 1012.02 1012.64 1013.21 1013.71 1014.15 1014.55 1014.91 1015.26 1015.62 1016.00 1016.42 1016.87 1017.35 1017.85 1018.34 1018.80 1019.22 1019.58 1019.87 1020.07
1016.08 1015.61 1015.14 1014.67 1014.20 1013.72 1013.24 1012.74 1012.22 1011.66 1011.08 1010.50 1009.94 1009.43 1009.01 1008.72 1008.58 1008.61 1008.81 1009.18 1009.69 1010.30 1010.99 1011.70 1012.38 1013.02 1013.59 1014.09 1014.51 1014.87 1015.21 1015.54 1015.88 1016.26 1016.69 1017.17 1017.69 1018.23 1018.78 1019.29 1019.76 1020.16 1020.47 1020.70
1015.87 1015.33 1014.78 1014.23 1013.70 1013.18 1012.66 1012.14 1011.60 1011.04 1010.48 1009.92 1009.40 1008.94 1008.58 1008.37 1008.31 1008.43 1008.73 1009.20 1009.80 1010.50 1011.25 1012.02 1012.74 1013.41 1013.99 1014.48 1014.89 1015.23 1015.55 1015.86 1016.19 1016.57 1017.00 1017.50 1018.04 1018.61 1019.18 1019.73 1020.22 1020.64 1020.96 1021.19
Thickness
5787 5774 5765 5772 5778 5780 5778 5774 5771 5781 5797 5793 5788 5790 5798 5805 5805 5802 5800 5799 5798 5799 5802 5800 5798 5795 5791 5787 5783 5778 5774 5772 5767 5762 5757 5753 5751 5750 5749 5747 5747 5746 5745 5743
5767 5765 5778 5782 5782 5780 5777 5771 5771 5781 5794 5792 5785 5787 5797 5803 5804 5806 5803 5800 5799 5798 5797 5797 5796 5794 5791 5788 5784 5780 5776 5773 5769 5765 5761 5757 5754 5752 5750 5749 5748 5747 5745 5744
5762 5772 5784 5780 5776 5773 5772 5770 5772 5774 5782 5786 5783 5776 5787 5798 5803 5804 5804 5803 5802 5800 5797 5797 5796 5795 5793 5788 5785 5783 5779 5774 5770 5766 5761 5757 5753 5750 5747 5746 5746 5745 5745 5744
5763 5775 5779 5775 5773 5773 5763 5779 5779 5777 5765 5755 5769 5749 5773 5784 5789 5795 5799 5800 5802 5803 5801 5798 5797 5795 5793 5791 5788 5784 5779 5775 5770 5766 5761 5755 5750 5747 5747 5747 5746 5745 5744 5744
5758 5771 5773 5770 5775 5777 5773 5783 5779 5774 5763 5752 5757 5748 5757 5775 5779 5788 5797 5801 5804 5805 5803 5801 5799 5797 5794 5792 5788 5784 5778 5774 5770 5766 5762 5756 5752 5749 5748 5746 5745 5745 5745 5745
5763 5776 5779 5778 5785 5784 5781 5770 5760 5748 5742 5732 5749 5745 5748 5763 5778 5788 5797 5802 5803 5804 5802 5801 5799 5796 5792 5791 5787 5783 5777 5773 5769 5765 5762 5758 5754 5750 5747 5745 5744 5744 5744 5744
5752 5765 5779 5784 5774 5775 5769 5743 5721 5722 5713 5720 5742 5743 5748 5776 5786 5791 5796 5800 5803 5803 5800 5798 5795 5791 5788 5787 5784 5782 5777 5772 5768 5765 5761 5758 5755 5751 5749 5747 5745 5744 5743 5743
5731 5736 5766 5777 5772 5761 5758 5747 5719 5711 5710 5718 5736 5736 5759 5783 5791 5795 5797 5799 5801 5800 5799 5797 5794 5791 5788 5784 5782 5779 5775 5770 5767 5763 5760 5757 5755 5752 5750 5749 5747 5745 5744 5744
5725 5733 5767 5778 5781 5769 5749 5743 5746 5722 5717 5716 5724 5740 5763 5783 5786 5790 5792 5795 5796 5797 5796 5794 5792 5789 5785 5782 5780 5776 5772 5767 5764 5761 5758 5756 5753 5750 5749 5748 5747 5745 5745 5744
5738 5734 5756 5770 5773 5767 5762 5746 5728 5716 5703 5705 5722 5731 5742 5768 5776 5781 5784 5787 5791 5793 5791 5789 5788 5785 5782 5780 5777 5774 5770 5765 5762 5759 5756 5754 5751 5750 5748 5746 5745 5745 5744 5743
5742 5732 5742 5753 5753 5750 5747 5741 5729 5715 5716 5704 5706 5727 5765 5770 5776 5777 5781 5785 5786 5786 5785 5785 5783 5782 5779 5776 5773 5770 5767 5763 5759 5756 5753 5751 5749 5748 5746 5745 5743 5743 5742 5741
5736 5722 5719 5737 5758 5765 5758 5745 5733 5722 5714 5711 5710 5729 5776 5775 5778 5778 5779 5782 5783 5782 5782 5781 5779 5777 5774 5771 5768 5765 5763 5760 5757 5754 5751 5748 5746 5744 5743 5742 5742 5741 5740 5739
5733 5717 5707 5717 5733 5749 5750 5745 5742 5731 5714 5704 5709 5735 5772 5773 5775 5777 5777 5778 5778 5778 5777 5775 5773 5771 5768 5766 5763 5761 5758 5756 5754 5752 5748 5745 5743 5742 5740 5739 5739 5738 5736 5735
5742 5717 5712 5710 5721 5738 5743 5744 5739 5732 5714 5709 5721 5742 5760 5766 5769 5772 5773 5774 5774 5774 5773 5771 5768 5766 5764 5762 5760 5758 5755 5753 5751 5748 5745 5742 5740 5739 5738 5736 5735 5734 5732 5731
5734 5717 5722 5729 5740 5744 5747 5746 5741 5740 5734 5728 5736 5742 5759 5768 5771 5771 5772 5771 5770 5769 5768 5767 5764 5761 5759 5757 5756 5754 5751 5749 5747 5744 5740 5738 5737 5737 5734 5733 5731 5729 5728 5726
5721 5717 5719 5726 5736 5740 5741 5745 5743 5745 5743 5742 5746 5748 5765 5768 5769 5767 5768 5769 5767 5765 5764 5762 5760 5758 5756 5754 5752 5750 5747 5745 5743 5739 5735 5734 5733 5732 5730 5728 5726 5724 5722 5721
5709 5710 5705 5706 5726 5731 5723 5739 5742 5745 5749 5747 5743 5755 5761 5761 5763 5764 5765 5765 5764 5763 5761 5759 5757 5754 5753 5751 5749 5746 5743 5741 5738 5734 5731 5730 5729 5727 5724 5722 5720 5717 5716 5714
5705 5700 5694 5697 5710 5700 5725 5748 5751 5748 5749 5753 5757 5759 5761 5763 5762 5762 5764 5763 5761 5759 5756 5754 5752 5750 5749 5747 5745 5743 5740 5737 5734 5731 5728 5726 5724 5721 5719 5717 5713 5711 5709 5707
5705 5700 5688 5685 5691 5704 5727 5741 5744 5742 5742 5752 5752 5754 5755 5756 5755 5753 5758 5760 5758 5756 5753 5750 5748 5745 5743 5741 5740 5738 5735 5733 5730 5726 5724 5722 5719 5717 5714 5711 5708 5705 5703 5700
5697 5697 5688 5683 5687 5690 5718 5739 5746 5743 5733 5750 5751 5750 5749 5750 5741 5747 5755 5755 5753 5751 5748 5745 5743 5740 5737 5735 5734 5731 5728 5726 5723 5721 5719 5716 5714 5712 5708 5705 5702 5699 5697 5693
5681 5681 5680 5680 5684 5696 5722 5733 5739 5721 5731 5748 5748 5748 5748 5748 5751 5753 5752 5749 5747 5745 5742 5739 5736 5732 5730 5729 5727 5724 5721 5718 5717 5715 5713 5710 5708 5705 5702 5699 5696 5693 5689 5685
5669 5670 5670 5672 5677 5689 5719 5724 5722 5727 5739 5743 5744 5745 5744 5744 5745 5745 5744 5741 5740 5737 5733 5731 5727 5723 5721 5720 5719 5716 5713 5712 5711 5708 5705 5702 5700 5698 5694 5692 5688 5685 5682 5677
5663 5668 5670 5676 5683 5699 5708 5714 5722 5727 5730 5736 5739 5741 5740 5738 5736 5735 5734 5733 5731 5728 5725 5722 5720 5716 5713 5711 5711 5708 5706 5705 5704 5701 5697 5694 5691 5689 5686 5683 5679 5676 5672 5669
5659 5666 5668 5674 5686 5695 5702 5710 5717 5723 5726 5731 5735 5735 5735 5732 5729 5727 5725 5723 5721 5719 5717 5714 5712 5708 5705 5703 5702 5701 5699 5698 5696 5692 5688 5684 5681 5678 5675 5672 5669 5666 5663 5660
5654 5660 5661 5667 5679 5688 5696 5702 5708 5715 5720 5723 5725 5727 5727 5725 5721 5719 5716 5714 5712 5711 5709 5708 5705 5702 5698 5696 5694 5693 5692 5690 5687 5683 5678 5674 5670 5667 5662 5658 5654 5652 5649 5649
5649 5654 5658 5664 5675 5679 5685 5694 5701 5706 5709 5712 5714 5714 5716 5716 5713 5710 5707 5705 5703 5702 5701 5699 5697 5694 5691 5689 5687 5685 5684 5683 5680 5674 5669 5665 5661 5657 5653 5649 5642 5638 5637 5635